RH
35 36 38 40 42 44 48 51 52 53 55 54 52 50 51 53 53 48 37 28 26 26 24 23 23 23 23 23 23 23 22 21 19 19 19 21 24 27 31 34 36 41
37 38 40 42 43 45 48 50 53 55 57 59 57 54 54 55 56 54 47 36 29 28 28 26 25 25 25 25 25 24 23 22 21 20 19 20 22 25 29 34 38 40
38 39 42 43 44 46 48 50 54 57 58 60 61 60 57 58 60 59 54 44 34 30 31 29 28 28 27 27 27 26 26 24 23 23 21 21 21 23 26 31 37 42
38 39 41 43 45 47 49 51 55 58 59 60 62 63 62 61 63 62 59 52 41 33 32 32 31 30 29 30 29 28 28 27 26 25 23 23 23 24 26 30 35 41
39 41 42 44 46 49 52 53 56 59 60 60 62 65 66 66 66 65 63 58 47 37 35 34 33 33 32 31 31 31 31 29 28 27 25 25 25 27 31 34 37 41
40 42 44 46 48 51 54 55 57 61 62 61 62 66 69 69 69 68 66 63 52 41 37 37 36 35 34 34 34 34 34 33 31 29 28 27 27 29 33 38 42 44
42 44 45 47 49 54 57 57 58 60 62 62 63 66 71 72 71 70 69 67 59 46 40 40 39 38 37 37 37 37 37 36 34 32 31 29 30 31 35 39 43 45
41 42 43 45 49 54 59 60 60 60 62 64 64 68 73 73 72 72 71 71 64 50 43 43 41 40 40 39 40 41 41 39 37 35 34 33 33 35 38 41 44 45
40 41 42 43 45 49 58 63 64 62 63 64 66 70 75 74 73 73 73 74 68 53 45 45 44 43 44 44 44 45 44 42 40 38 37 36 37 39 41 44 45 46
40 42 43 43 42 43 51 61 66 67 67 68 69 72 75 75 74 74 73 75 70 56 47 47 47 48 49 49 49 49 47 44 42 40 40 39 41 42 43 46 47 46
40 42 42 42 41 40 44 52 62 67 70 70 71 73 75 76 76 74 75 77 71 57 49 49 51 52 54 54 54 53 51 47 44 43 43 43 44 44 45 48 51 51
40 42 43 42 41 41 43 47 53 60 65 69 73 75 76 77 76 76 76 77 71 58 52 53 55 58 59 58 57 57 54 50 47 46 46 47 47 46 47 52 55 55
41 43 44 43 41 40 43 45 48 51 56 63 69 72 73 75 77 78 79 78 74 65 58 58 61 64 64 62 60 60 58 54 51 51 52 52 51 49 49 53 59 61
42 45 46 46 43 40 39 40 43 46 50 54 57 59 63 69 74 77 80 82 80 71 64 64 67 69 70 67 64 65 63 59 57 58 57 57 56 55 53 55 62 69
45 47 48 49 48 45 43 40 41 44 47 48 48 49 54 63 70 76 80 84 81 73 68 69 72 75 77 73 68 69 70 67 63 62 63 63 62 61 60 59 65 75
49 49 48 49 49 50 50 50 50 51 53 52 50 49 52 61 70 77 81 82 79 74 72 73 76 79 82 79 73 71 74 73 69 67 67 67 67 67 66 65 68 79
50 51 52 52 52 52 53 53 54 56 59 59 56 53 54 60 67 73 78 81 78 75 75 76 79 81 83 84 80 75 74 76 76 73 71 69 70 70 71 71 72 81
52 54 57 59 59 57 55 52 52 53 58 61 59 57 57 59 64 71 78 81 79 78 79 80 82 84 85 88 88 83 79 78 78 78 76 74 73 74 74 75 74 79
60 61 63 63 61 57 53 50 51 54 59 62 61 60 60 63 69 75 80 82 81 82 84 85 87 89 89 91 93 91 88 85 80 77 76 76 77 78 79 80 79 80
68 69 68 64 58 54 51 50 51 56 61 63 62 63 66 70 75 79 82 85 86 86 87 88 91 93 92 93 96 96 95 94 89 82 78 75 75 80 86 87 86 86
71 69 66 62 58 56 56 55 56 58 63 65 65 68 72 76 79 82 85 88 89 89 89 90 93 95 95 96 97 99 100 98 95 91 85 76 73 81 92 95 92 93
67 64 63 61 61 62 62 61 60 61 64 66 69 72 78 83 87 89 91 92 93 93 93 94 96 98 99 98 99 101 98 93 93 96 89 79 78 86 96 99 98 98
63 63 62 62 62 63 65 66 65 64 65 68 72 77 84 90 94 97 97 97 98 98 98 98 99 100 100 99 100 98 90 84 92 98 89 81 86 95 99 100 100 99
66 66 65 65 64 64 66 66 68 69 70 71 76 83 90 96 98 96 94 95 98 99 99 99 100 100 100 100 100 98 91 88 95 97 88 84 91 98 100 100 100 99
71 72 71 69 66 64 64 64 68 73 74 76 82 88 94 97 97 94 93 96 99 100 99 100 100 100 100 99 100 100 96 96 99 96 89 88 94 99 100 99 100 100
76 75 71 65 61 60 62 65 72 77 78 81 86 90 92 94 93 93 94 96 97 99 99 100 99 100 100 100 100 98 97 99 99 93 91 93 97 100 99 98 99 100
Wind_Speed
36 36 36 36 37 38 37 38 38 38 37 37 35 33 31 31 31 30 29 28 28 29 29 30 30 29 29 29 29 29 29 29 30 30 30 30 30 30 31 31 32 34
36 36 35 35 36 38 39 39 38 38 38 37 37 36 34 32 32 32 30 29 28 29 30 30 30 30 31 31 31 30 30 31 31 31 32 32 32 32 32 32 32 33
36 36 35 35 36 37 39 39 38 38 39 38 38 38 36 34 33 33 32 30 29 29 30 30 31 31 31 32 32 32 32 32 33 33 33 33 33 33 33 33 34 34
37 37 37 36 36 37 39 39 38 38 39 39 39 39 38 36 34 33 33 32 30 30 30 31 31 32 32 32 33 33 33 34 34 35 35 34 34 34 34 35 35 35
38 37 36 36 36 37 39 39 39 39 39 40 40 40 39 38 36 34 34 33 31 31 31 32 32 33 33 33 34 34 34 35 35 36 36 35 34 34 34 35 36 36
37 36 35 35 36 37 39 40 39 39 39 40 41 41 40 39 38 36 35 34 33 32 32 33 33 34 34 35 35 35 35 35 36 36 36 36 36 35 34 34 35 36
36 35 34 34 34 35 37 39 40 40 40 40 41 41 40 39 39 38 36 35 34 33 32 33 34 35 35 36 36 36 36 36 36 36 36 36 36 35 35 35 35 36
32 31 31 31 32 32 34 37 39 40 40 41 42 41 39 39 40 39 38 36 35 34 33 34 35 36 37 37 37 37 37 36 36 36 36 36 36 35 35 35 35 36
28 28 28 29 29 29 31 34 37 38 39 41 42 41 39 39 40 40 38 37 36 35 34 35 36 37 38 38 38 38 37 36 36 36 36 35 35 34 34 34 35 35
27 26 26 27 27 28 29 31 33 35 37 39 40 39 39 40 41 40 39 38 37 36 36 36 37 38 38 38 38 38 37 36 36 36 36 35 35 34 34 33 34 34
26 25 25 25 26 27 28 29 30 32 33 35 37 37 38 40 40 40 39 38 38 38 38 38 38 38 38 38 38 38 37 36 36 35 35 35 35 34 33 33 33 33
25 24 24 24 24 25 26 27 28 29 30 32 33 35 37 39 40 40 39 39 39 39 39 39 38 38 38 38 38 37 36 35 35 35 35 34 34 34 33 32 32 32
24 23 23 22 23 23 23 24 26 27 28 29 31 33 35 37 39 39 39 39 40 40 39 38 38 38 38 37 36 35 34 34 34 34 34 34 33 33 33 32 32 32
24 23 23 22 22 23 23 23 24 25 27 28 30 32 33 36 38 39 39 40 40 40 39 38 37 37 37 36 35 34 34 33 33 33 33 33 32 32 32 32 32 32
23 23 23 22 23 24 24 24 25 25 26 28 30 32 34 36 37 39 40 40 40 40 38 38 37 37 37 36 35 34 33 33 32 32 32 32 31 31 32 32 32 33
23 23 22 23 24 25 26 27 27 28 29 30 32 34 35 37 38 39 40 40 40 40 39 39 38 38 38 37 35 34 33 33 32 32 31 31 31 31 31 32 33 33
25 24 23 24 25 26 27 29 30 32 32 33 34 36 36 37 38 39 40 40 41 40 40 40 40 39 39 38 36 34 32 32 32 31 31 31 31 31 31 32 32 33
26 26 25 26 26 27 29 30 31 33 34 35 36 36 37 38 38 39 39 40 41 41 41 42 41 41 40 39 38 36 34 32 31 31 31 31 31 32 32 32 32 33
27 28 28 29 29 30 30 30 30 32 33 35 37 37 38 38 38 38 39 40 41 42 42 42 42 42 41 41 40 38 35 33 32 32 32 31 31 32 32 33 33 32
30 30 31 31 31 31 31 31 31 31 33 36 38 39 39 39 39 40 40 41 42 42 43 43 43 43 43 42 41 39 36 33 32 33 34 33 33 33 33 34 33 32
32 32 33 33 33 32 32 32 32 32 34 36 38 40 41 41 41 42 43 43 43 43 44 45 45 45 45 44 42 39 34 31 32 34 34 33 33 34 35 35 33 31
34 34 34 34 34 34 34 33 33 34 35 37 39 40 42 42 43 43 44 44 44 45 45 46 46 47 46 43 40 36 32 31 35 36 34 32 33 34 36 35 33 31
36 36 36 36 36 36 35 35 35 35 37 39 40 42 43 43 43 43 44 44 44 45 45 47 48 48 44 41 37 33 32 35 37 36 33 32 32 34 36 34 31 31
38 37 37 38 38 38 38 38 38 38 38 39 41 42 44 44 44 45 44 44 43 43 44 46 47 45 42 38 34 32 34 37 37 35 34 33 33 34 35 32 30 31
39 39 39 40 41 42 42 41 41 40 39 39 40 42 43 44 45 45 43 42 41 41 42 44 43 39 37 35 32 33 36 36 35 36 35 33 32 33 33 30 29 30
40 40 41 42 43 43 42 41 40 39 39 39 40 41 42 42 43 43 42 41 40 40 41 41 40 37 35 34 34 36 37 36 36 38 36 33 33 33 32 29 28 29
Wind_Direction
296 297 297 296 295 294 294 294 296 298 300 303 307 309 308 307 303 297 294 293 290 287 285 284 283 283 283 284 283 282 281 279 278 277 277 276 276 274 273 271 270 269
297 297 297 297 295 292 290 291 292 294 296 299 303 306 307 306 305 300 295 292 290 287 286 285 284 284 284 285 285 284 282 281 279 278 277 277 276 276 275 273 271 269
298 297 297 296 294 290 287 287 287 289 292 296 300 302 304 305 304 301 296 293 290 287 285 285 285 285 285 286 286 285 284 282 281 279 277 276 275 275 274 273 271 269
299 298 297 295 292 288 285 283 282 284 287 292 296 299 300 302 302 300 296 293 291 288 285 285 285 285 286 287 287 287 285 284 282 281 279 278 275 273 272 271 271 270
300 298 295 293 289 285 281 279 278 280 283 287 291 295 297 298 299 299 296 293 291 288 285 285 286 287 287 288 288 287 286 284 283 282 281 279 277 274 272 270 270 270
297 295 292 289 286 283 280 278 276 277 280 283 287 291 293 294 296 298 296 293 290 288 286 285 286 288 289 289 289 288 286 285 283 282 282 280 279 276 274 271 270 269
293 291 289 286 284 282 281 279 277 276 277 280 283 287 290 290 293 295 294 293 291 288 286 286 287 288 289 290 289 288 287 285 284 283 282 281 280 278 276 273 271 269
292 291 288 285 282 281 280 280 279 278 276 277 280 284 286 287 290 292 292 292 291 288 286 286 287 288 289 289 289 288 287 286 285 284 283 281 279 278 276 274 272 271
294 291 288 286 284 282 280 279 280 279 276 276 279 282 284 285 288 290 290 290 290 288 286 285 286 287 288 289 290 289 288 287 286 284 283 282 280 277 275 273 272 271
294 291 289 288 287 285 281 278 277 278 278 278 280 282 283 284 286 288 288 289 289 287 285 284 286 288 290 291 291 290 289 287 285 284 284 282 280 278 276 274 272 271
294 291 288 287 287 286 284 279 276 276 277 280 282 283 284 284 285 286 286 286 287 285 284 284 286 289 291 293 293 292 290 287 285 284 283 282 280 279 277 276 274 273
294 291 290 289 289 289 289 286 280 277 277 279 281 282 283 283 283 283 284 285 285 284 283 284 287 290 293 295 295 293 291 288 286 284 282 281 281 280 279 278 277 276
294 293 292 292 292 291 291 290 286 282 279 277 278 278 279 279 280 281 282 282 283 282 282 284 288 291 295 296 296 294 291 288 286 284 283 282 281 281 280 280 279 277
295 295 294 294 293 292 291 289 286 283 281 278 277 276 276 277 278 279 279 280 281 282 282 285 288 292 296 297 296 294 290 288 286 284 283 282 282 281 281 281 280 278
297 297 295 294 293 292 290 286 284 282 282 281 280 279 277 276 276 277 277 278 280 280 281 284 287 291 296 298 297 294 291 288 286 284 283 282 282 281 281 280 278 276
298 298 297 295 293 290 287 284 282 281 281 280 280 279 278 278 277 277 277 278 279 278 279 282 285 290 295 298 298 295 293 289 286 284 283 282 282 282 281 279 277 274
295 296 296 295 292 289 287 285 283 282 280 279 278 278 278 278 278 278 277 277 276 276 278 280 284 289 293 296 297 295 293 290 287 285 284 284 283 283 281 279 276 273
292 294 296 295 293 291 289 287 285 283 281 279 278 277 277 277 277 277 276 275 274 275 277 280 283 287 290 293 294 293 292 291 289 287 286 285 285 284 283 281 278 274
292 294 296 296 295 294 293 291 288 284 281 279 278 277 277 277 277 276 275 273 273 273 275 278 281 284 288 290 291 290 289 289 290 289 287 288 287 286 284 283 281 277
293 293 294 295 296 296 295 294 290 285 281 279 278 277 277 277 276 275 274 274 273 273 275 277 279 282 284 286 288 287 286 286 289 290 288 288 289 288 286 284 280 275
292 292 293 294 295 296 296 295 291 287 282 279 277 277 278 277 276 276 276 275 275 274 276 277 278 280 281 283 286 285 283 286 292 291 288 287 288 288 286 282 276 269
293 293 294 295 296 297 297 296 292 288 284 281 279 278 278 278 278 278 278 278 277 277 277 277 278 279 280 282 284 285 288 294 296 292 288 287 288 287 283 279 272 264
293 293 294 295 297 299 299 297 294 290 286 283 281 279 279 280 280 280 280 280 280 279 278 278 279 279 279 281 283 287 295 299 296 294 292 290 289 286 281 276 269 260
293 293 294 295 297 299 299 298 295 292 288 284 281 280 280 280 280 280 279 279 280 281 281 281 281 280 280 281 281 288 297 297 294 295 295 292 288 284 279 274 266 260
293 293 295 297 298 298 298 296 293 291 288 285 282 281 281 282 282 282 283 283 284 286 286 285 282 281 282 282 283 291 295 292 291 295 296 291 287 283 278 271 264 261
292 294 297 299 299 298 296 294 291 289 287 284 282 281 281 282 283 284 285 285 286 288 289 288 286 286 288 287 288 292 290 287 291 297 295 288 283 280 276 268 261 259